Terminal Aerodrome Forecast
Issued by NWS

Home | Current Version | Previous Version | Text Only | Print | Product List | Glossary On
Versions: 1 2 3 4 5 6 7 8 9 10 11 12 13 14 15 16 17 18 19 20 21 22 23 24 25 26 27 28 29 30
000
FTUS41 KBUF 212300
TAFIAG
TAF
KIAG 212329Z 2200/2224 25012G22KT P6SM VCSH BKN060
     FM220200 27013G23KT P6SM VCSH BKN030
     FM220900 31016G26KT P6SM OVC020
     FM221500 30013KT P6SM BKN030
     FM222000 28012G18KT P6SM BKN035
     FM222200 28011KT P6SM SCT035=

USA.gov is the U.S. government's official web portal to all federal, state and local government web resources and services.